Time,TemperatureF,DewpointF,PressureIn,WindDirection,WindDirectionDegrees,WindSpeedMPH,WindSpeedGustMPH,Humidity,HourlyPrecipIn,Conditions,Clouds,dailyrainin,SoftwareType,DateUTC
2013-08-20 01:00:00,49.0,-99.9,-100.00,North,-999,-999.0,-999.0,-999,-99.99,,,0.00,,2013-08-20 08:00:00,
2013-08-20 01:52:00,49.0,-99.9,-100.00,North,-999,-999.0,-999.0,-999,-99.99,,,0.00,,2013-08-20 08:52:00,
2013-08-20 03:00:00,47.0,-99.9,-100.00,North,-999,-999.0,-999.0,-999,-99.99,,,0.00,,2013-08-20 10:00:00,
2013-08-20 03:52:00,47.0,-99.9,-100.00,North,-999,-999.0,-999.0,-999,-99.99,,,0.00,,2013-08-20 10:52:00,
2013-08-20 04:00:00,46.0,-99.9,-100.00,North,-999,-999.0,-999.0,-999,-99.99,,,-99.99,,2013-08-20 11:00:00,
2013-08-20 04:52:00,46.0,-99.9,-100.00,North,-999,-999.0,-999.0,-999,-99.99,,,-99.99,,2013-08-20 11:52:00,
2013-08-20 06:00:00,45.0,-99.9,-100.00,North,-999,-999.0,-999.0,-999,-99.99,,,0.00,,2013-08-20 13:00:00,
2013-08-20 06:52:00,45.0,-99.9,-100.00,North,-999,-999.0,-999.0,-999,-99.99,,,0.00,,2013-08-20 13:52:00,
2013-08-20 07:00:00,47.0,-99.9,-100.00,North,-999,-999.0,-999.0,-999,-99.99,,,0.00,,2013-08-20 14:00:00,
2013-08-20 07:52:00,47.0,-99.9,-100.00,North,-999,-999.0,-999.0,-999,-99.99,,,0.00,,2013-08-20 14:52:00,
2013-08-20 09:00:00,72.0,-99.9,-100.00,North,-999,-999.0,-999.0,-999,-99.99,,,0.03,,2013-08-20 16:00:00,
2013-08-20 09:53:00,72.0,-99.9,-100.00,North,-999,-999.0,-999.0,-999,-99.99,,,0.03,,2013-08-20 16:53:00,
2013-08-20 10:00:00,72.0,-99.9,-100.00,North,-999,-999.0,-999.0,-999,-99.99,,,0.03,,2013-08-20 17:00:00,
2013-08-20 10:52:00,72.0,-99.9,-100.00,North,-999,-999.0,-999.0,-999,-99.99,,,0.03,,2013-08-20 17:52:00,
2013-08-20 11:00:00,75.0,-99.9,-100.00,North,-999,-999.0,-999.0,-999,-99.99,,,0.03,,2013-08-20 18:00:00,
2013-08-20 11:52:00,75.0,-99.9,-100.00,North,-999,-999.0,-999.0,-999,-99.99,,,0.03,,2013-08-20 18:52:00,
2013-08-20 15:00:00,80.0,-99.9,-100.00,North,-999,-999.0,-999.0,-999,-99.99,,,0.07,,2013-08-20 22:00:00,
2013-08-20 15:54:00,80.0,-99.9,-100.00,North,-999,-999.0,-999.0,-999,-99.99,,,0.07,,2013-08-20 22:54:00,
2013-08-20 16:00:00,77.0,-99.9,-100.00,North,-999,-999.0,-999.0,-999,-99.99,,,0.08,,2013-08-20 23:00:00,
2013-08-20 16:53:00,77.0,-99.9,-100.00,North,-999,-999.0,-999.0,-999,-99.99,,,0.08,,2013-08-20 23:53:00,
2013-08-20 17:00:00,77.0,-99.9,-100.00,North,-999,-999.0,-999.0,-999,-99.99,,,0.07,,2013-08-21 00:00:00,
2013-08-20 17:52:00,77.0,-99.9,-100.00,North,-999,-999.0,-999.0,-999,-99.99,,,0.07,,2013-08-21 00:52:00,
2013-08-20 18:00:00,73.0,-99.9,-100.00,North,-999,-999.0,-999.0,-999,-99.99,,,0.07,,2013-08-21 01:00:00,
2013-08-20 18:53:00,73.0,-99.9,-100.00,North,-999,-999.0,-999.0,-999,-99.99,,,0.07,,2013-08-21 01:53:00,
2013-08-20 19:00:00,68.0,-99.9,-100.00,North,-999,-999.0,-999.0,-999,-99.99,,,0.06,,2013-08-21 02:00:00,
2013-08-20 19:52:00,68.0,-99.9,-100.00,North,-999,-999.0,-999.0,-999,-99.99,,,0.06,,2013-08-21 02:52:00,
2013-08-20 21:00:00,59.0,-99.9,-100.00,North,-999,-999.0,-999.0,-999,-99.99,,,-99.99,,2013-08-21 04:00:00,
2013-08-20 21:54:00,59.0,-99.9,-100.00,North,-999,-999.0,-999.0,-999,-99.99,,,-99.99,,2013-08-21 04:54:00,
2013-08-20 23:00:00,57.0,-99.9,-100.00,North,-999,-999.0,-999.0,-999,-99.99,,,0.04,,2013-08-21 06:00:00,
2013-08-20 23:52:00,57.0,-99.9,-100.00,North,-999,-999.0,-999.0,-999,-99.99,,,0.04,,2013-08-21 06:52:00,